SCP
0 0 0 0 0 1 0 1 1 1 1 1 1 1 1 1 1 1 1 1 2 1 1 1 1 1 0 0 0 0 0 0 0 0 0 0 0 0 0 0 -0 0 0
0 0 0 0 0 0 1 1 1 1 1 1 1 1 1 1 1 1 1 1 1 1 0 1 0 0 0 0 0 0 0 0 0 0 0 -0 0 0 0 0 0 0 0
0 0 0 0 0 0 0 0 0 0 1 1 1 1 1 1 1 1 1 0 0 0 0 0 0 0 0 0 0 0 0 0 0 0 0 0 0 0 0 0 0 0 0
0 0 0 0 1 0 1 0 0 0 1 1 1 1 1 1 1 1 0 0 0 0 0 0 0 0 0 0 0 0 0 0 0 0 0 0 0 0 0 0 0 0 0
0 0 0 0 0 1 1 1 0 0 0 1 1 1 1 1 0 0 0 0 0 0 0 0 0 0 0 0 0 0 0 0 0 0 0 0 0 0 0 0 0 0 0
0 0 0 0 1 1 1 1 0 0 0 1 1 1 1 1 1 1 0 0 0 0 0 0 0 0 0 0 0 0 0 0 0 0 0 0 0 0 0 0 0 0 0
0 0 0 0 1 1 1 0 0 0 0 1 1 1 1 1 1 1 0 0 0 0 0 0 0 0 0 0 0 0 0 0 0 0 0 0 0 0 0 0 0 0 0
0 0 0 0 0 0 1 1 0 0 1 1 0 0 0 0 0 0 0 0 0 0 0 0 0 0 0 0 0 0 0 0 0 0 0 0 0 0 0 0 0 0 0
0 0 0 0 0 0 0 0 0 0 0 0 0 0 0 0 0 0 0 0 0 0 0 0 0 0 0 0 0 0 0 0 0 0 0 0 0 0 0 0 0 0 0
0 0 0 0 0 0 0 0 0 0 0 0 0 0 0 0 0 0 0 0 0 0 0 0 0 0 0 0 0 0 0 0 0 0 0 0 0 0 0 0 0 0 0
0 0 0 0 0 0 0 0 0 0 0 0 0 0 0 -0 0 0 0 0 0 0 0 0 0 0 0 0 0 0 0 0 0 0 0 0 0 0 0 0 0 0 0
0 0 0 0 0 0 0 0 0 0 0 0 0 0 0 0 0 0 0 0 0 0 0 0 0 0 0 0 0 0 0 0 0 0 0 0 0 0 0 0 0 0 0
0 0 0 0 0 0 0 0 0 0 0 0 0 0 0 0 0 0 0 0 0 0 0 0 0 0 0 0 0 0 0 0 0 0 0 0 0 0 0 0 0 0 0
0 0 0 0 0 0 0 0 0 0 0 0 0 0 0 0 0 0 0 0 0 0 0 0 0 0 0 0 0 0 0 0 0 0 0 0 0 0 0 0 0 0 0
0 0 0 0 0 0 0 0 0 0 0 0 0 0 0 0 0 0 0 0 0 0 0 0 0 0 0 0 0 0 0 0 0 0 0 0 0 0 0 0 0 0 0
0 0 0 0 0 0 0 0 0 0 0 0 0 0 0 0 0 0 0 0 0 0 0 0 0 0 0 0 0 0 0 0 0 0 0 0 0 0 0 0 0 0 0
0 0 0 -0 0 0 0 0 0 0 0 0 0 0 0 0 0 0 0 0 0 0 0 0 0 0 0 0 0 0 0 0 0 0 0 0 0 0 0 0 0 0 0
0 0 -0 0 0 0 0 0 0 0 0 0 0 0 0 0 0 0 0 0 0 0 0 0 0 0 0 0 0 0 0 0 0 0 0 0 0 0 0 0 0 0 0
-0 0 0 0 0 0 0 0 0 0 0 0 0 0 0 0 0 0 0 0 0 0 0 0 0 0 0 0 0 0 0 0 0 -0 -0 0 0 0 0 0 0 0 0
-0 -0 -0 0 0 0 0 0 0 0 0 0 0 0 0 0 0 0 0 0 0 0 0 0 0 0 0 0 0 0 0 0 0 0 0 0 0 0 0 0 0 0 0
-0 -0 -0 0 0 0 0 0 0 0 0 0 0 0 0 0 0 0 0 0 0 0 0 0 0 0 0 0 0 0 0 0 0 0 0 0 -0 0 0 0 0 0 0
-0 -0 -0 -0 0 0 0 0 0 0 0 0 -0 0 0 0 0 0 0 0 0 0 0 0 0 0 0 0 0 -0 0 -0 0 0 0 -0 0 -0 0 0 0 0 0
-0 -0 0 0 0 0 0 0 0 0 0 0 0 0 0 0 0 0 0 0 0 0 0 0 0 0 0 0 -0 -0 -0 -0 0 -0 -0 0 -0 0 0 0 0 0 0
0 0 0 0 0 0 0 0 0 0 0 0 0 0 0 0 0 0 -0 -0 -0 0 0 0 0 0 -0 -0 -0 -0 -0 -0 0 0 -0 -0 0 0 0 0 0 0 0
0 0 0 0 0 0 0 0 0 0 0 0 0 0 0 0 0 -0 -0 -0 -0 -0 0 0 -0 -0 -0 -0 -0 -0 0 0 0 -0 -0 -0 -0 0 0 0 0 0 0
0 0 0 0 0 0 0 0 0 0 0 0 0 0 0 0 0 -0 -0 0 0 0 -0 -0 -0 -0 -0 -0 -0 -0 -0 -0 -0 -0 -0 -0 0 0 0 0 0 0 0
Wind_Speed_500mb
47 54 52 50 49 49 53 57 56 54 54 56 58 59 57 55 44 35 33 37 36 39 38 33 31 33 32 34 35 43 41 40 41 40 33 33 30 28 27 11 22 30 31
47 47 48 52 56 56 57 57 56 58 57 58 59 59 54 45 39 36 36 33 33 31 25 28 27 30 34 33 33 37 35 28 33 22 28 20 22 25 22 24 26 30 35
50 51 55 57 56 64 64 63 65 63 60 58 58 52 49 45 44 36 37 33 30 34 33 31 22 24 36 41 34 31 27 28 30 28 20 16 16 26 28 31 40 47 49
54 56 57 61 65 63 70 73 70 64 61 59 54 45 45 36 32 27 25 29 31 27 29 34 31 29 39 30 28 26 26 28 26 29 29 32 38 24 37 31 40 54 56
59 60 57 57 59 62 72 72 71 65 62 57 44 39 32 28 18 19 31 32 28 26 29 28 29 34 29 26 25 25 27 28 26 29 31 31 32 40 36 57 63 49 47
49 52 48 48 53 58 66 68 68 62 57 42 39 32 25 19 11 11 11 23 25 29 27 25 25 27 28 23 22 24 27 30 32 33 35 35 30 34 39 50 57 63 66
37 41 39 36 41 50 54 53 50 40 27 26 27 23 19 16 14 12 11 16 22 26 27 25 24 25 26 24 24 25 27 29 33 36 40 47 55 53 49 50 60 60 57
35 36 36 36 35 38 47 45 35 25 21 21 24 23 18 19 19 21 18 18 22 25 25 23 22 23 23 24 26 29 32 36 41 48 55 61 61 53 47 49 56 68 67
42 45 43 45 45 44 45 41 32 28 29 31 30 25 16 13 15 16 18 20 20 20 21 21 21 22 24 28 31 35 40 45 53 59 62 62 62 57 55 50 50 58 68
51 50 49 48 50 49 49 43 37 35 39 34 29 21 13 6 7 11 15 18 20 20 19 21 23 27 31 35 39 44 50 54 56 59 60 62 60 57 53 47 49 52 63
56 59 60 58 61 60 60 61 58 53 43 33 25 26 20 17 6 7 9 12 17 20 23 26 30 33 37 41 45 49 53 56 59 61 62 64 62 54 43 43 46 52 55
61 72 77 78 71 70 66 59 49 40 34 30 24 15 29 15 14 14 15 17 19 24 28 32 36 39 42 47 52 54 57 61 65 65 64 56 45 45 45 47 52 59 65
73 79 71 59 61 60 58 52 46 38 28 15 9 16 14 19 14 15 18 22 25 28 32 36 41 46 51 55 58 59 61 63 64 63 59 53 46 47 48 51 57 64 62
63 59 57 58 59 57 55 49 44 36 32 24 24 14 14 15 19 24 29 33 37 41 45 49 52 56 58 59 58 58 59 60 56 52 51 52 55 54 54 55 58 60 65
45 45 49 52 53 50 47 44 37 27 18 12 4 8 17 23 29 35 40 44 47 49 50 51 52 53 54 52 55 58 57 55 55 54 55 57 59 63 64 64 62 59 61
42 36 48 52 45 40 35 33 29 18 6 1 9 17 26 32 37 40 43 44 44 44 44 45 49 52 51 49 48 47 50 50 50 51 51 56 60 62 59 59 59 60 67
39 36 44 47 41 36 28 22 13 7 8 12 16 21 27 32 34 36 36 37 36 35 38 49 53 47 39 34 34 36 41 44 48 52 52 57 54 55 57 58 66 71 72
42 44 44 42 35 32 24 20 15 11 13 18 22 24 26 29 31 31 31 30 30 32 42 49 39 34 28 26 30 35 39 44 46 49 50 55 51 53 62 70 76 79 81
41 44 42 39 34 30 26 21 20 19 18 20 27 30 31 28 26 26 26 27 27 28 33 36 36 35 31 28 32 36 40 44 44 44 47 52 60 62 56 60 74 81 86
49 46 41 37 30 29 23 17 21 24 29 30 30 29 26 25 26 27 28 30 31 28 26 29 34 31 32 31 29 32 39 44 46 49 55 56 59 64 64 70 77 84 87
46 39 35 32 30 26 26 30 28 28 28 25 24 23 25 27 27 26 28 29 29 28 26 25 23 25 25 26 28 30 38 46 55 56 58 60 62 62 64 54 54 60 65
42 35 35 37 34 30 24 24 25 25 21 21 24 26 27 27 24 25 26 27 28 27 25 24 20 17 21 22 23 26 33 37 48 51 51 53 56 60 57 40 42 46 49
42 37 36 35 33 29 26 25 29 27 26 22 22 24 27 26 26 28 27 26 29 33 39 33 30 25 23 22 23 27 37 39 39 41 43 63 65 41 42 43 44 49 52
38 33 32 32 30 27 27 33 33 30 23 20 20 24 28 26 25 26 29 32 34 41 41 34 34 30 29 33 35 40 44 38 39 55 62 66 61 55 45 34 41 50 50
34 31 31 30 30 28 29 31 32 31 26 20 18 20 26 28 27 29 29 32 34 40 37 35 36 39 42 43 35 33 45 43 52 63 69 71 69 68 51 37 42 50 53
32 32 30 28 28 26 26 28 31 31 29 21 17 18 23 23 23 26 27 27 27 29 26 28 27 28 34 34 24 23 28 42 55 67 74 81 79 75 65 58 50 50 53
Wind_Direction_500mb
221 225 223 222 220 218 213 210 213 217 221 223 222 224 225 226 225 227 248 245 245 243 230 229 233 244 242 248 255 271 269 269 276 290 286 292 283 284 293 280 259 289 283
225 218 217 220 220 216 214 214 213 218 222 224 223 223 224 228 238 267 259 250 248 235 226 229 224 225 238 244 270 268 254 256 273 288 305 306 297 285 286 288 286 292 294
221 221 222 217 217 217 212 210 213 217 223 226 226 227 231 238 245 251 265 254 238 245 230 214 228 238 255 270 256 244 245 259 266 280 268 277 286 303 290 287 292 296 296
226 227 218 214 217 211 211 213 215 218 224 227 226 234 247 246 248 262 245 253 243 239 222 215 228 252 260 254 240 242 249 252 262 266 266 268 271 290 297 292 301 297 292
221 221 218 218 213 213 213 215 217 220 225 229 226 233 238 241 236 242 256 242 245 232 218 219 225 234 243 240 246 257 252 261 257 261 271 274 274 276 271 286 292 289 292
215 216 214 208 208 211 213 217 219 223 227 227 223 222 219 223 232 238 241 222 223 221 225 232 240 243 246 255 254 255 251 254 260 265 268 271 272 274 278 281 284 290 296
191 193 191 185 193 205 207 207 210 214 212 205 204 193 197 211 226 246 234 227 228 233 230 231 241 244 244 244 244 250 258 266 271 275 277 280 281 281 281 283 285 286 285
138 148 154 162 169 180 190 190 190 188 181 183 178 174 201 220 243 247 244 239 232 230 233 231 229 233 236 246 259 265 269 274 278 281 282 284 285 284 281 281 289 291 288
111 122 138 148 157 162 169 174 167 157 148 145 153 173 185 211 219 226 229 228 225 222 222 225 228 236 249 259 265 270 274 278 281 283 284 286 286 286 286 283 282 284 288
107 120 127 136 138 139 136 136 138 135 119 106 90 73 56 81 143 190 200 202 209 215 220 234 248 260 268 273 277 280 282 282 283 286 288 289 289 287 286 282 280 278 280
112 121 126 130 127 126 124 121 115 106 92 79 74 48 35 14 339 235 229 217 225 237 249 259 266 270 274 277 279 281 283 285 286 288 290 290 290 288 283 283 283 282 282
110 116 118 119 118 120 119 116 116 108 99 92 88 18 332 287 242 247 250 256 263 267 270 272 275 279 284 286 288 289 291 292 292 292 291 290 287 283 285 286 284 284 285
112 113 110 106 109 114 118 118 113 110 106 109 36 234 228 238 255 264 274 276 276 278 284 287 289 291 292 293 295 295 293 293 291 291 289 287 284 283 283 285 286 284 282
114 109 107 108 111 112 113 113 112 112 110 109 131 196 240 275 291 295 297 299 299 298 297 297 297 296 295 296 297 296 295 294 292 290 287 286 287 283 286 289 287 285 285
108 109 110 112 114 117 118 117 113 108 101 106 136 272 293 298 299 298 299 299 299 299 300 301 301 300 300 300 297 295 294 294 294 294 298 293 293 296 296 292 285 282 283
106 109 114 116 115 113 108 104 97 93 122 349 301 302 305 305 304 303 302 302 304 307 308 307 307 307 305 299 294 292 297 300 298 298 304 306 305 302 304 298 293 287 283
116 115 110 113 111 104 94 92 86 58 1 337 325 320 317 310 308 311 313 315 316 319 321 320 314 310 310 305 302 301 301 302 306 308 309 306 304 304 299 298 296 289 284
120 118 117 114 107 101 98 88 78 51 24 3 343 329 322 322 324 326 327 325 325 329 334 329 329 327 324 318 309 306 311 310 309 307 306 303 309 307 310 306 301 298 293
122 119 116 111 106 97 83 71 63 46 24 11 2 351 345 341 339 337 333 326 325 329 334 334 332 327 333 328 317 316 313 312 314 314 317 318 315 316 313 307 306 302 297
123 118 113 108 101 89 80 67 51 35 25 18 11 4 7 1 358 353 346 344 337 330 331 332 330 332 338 338 331 324 322 327 331 335 334 332 326 318 313 305 303 301 304
116 112 109 105 97 89 69 54 45 39 32 28 31 23 16 8 6 3 2 359 357 345 334 338 343 343 344 346 345 339 338 334 335 337 336 331 328 321 315 312 312 312 309
115 114 110 98 86 77 65 54 44 39 41 47 40 27 16 12 8 7 8 10 10 10 12 359 2 5 357 1 360 355 346 343 342 345 345 341 335 333 330 332 328 325 320
117 108 97 92 83 71 59 50 47 44 45 44 36 24 12 14 13 11 11 7 4 6 7 15 16 18 17 9 8 357 356 354 355 357 359 2 352 354 12 14 25 29 23
106 100 96 86 79 68 57 49 43 42 47 49 33 25 13 17 15 7 4 1 1 4 14 19 22 24 23 13 6 3 359 3 15 20 19 17 13 23 29 38 29 33 29
107 101 92 83 74 64 55 44 39 39 42 46 36 27 20 20 21 14 14 4 4 3 6 16 16 14 13 9 2 348 356 10 26 25 23 16 11 23 30 38 27 26 35
103 93 84 75 66 59 51 44 37 38 39 43 37 29 22 23 28 26 18 12 11 5 6 4 11 12 3 2 6 355 2 23 31 31 29 23 24 26 26 30 28 24 25
Wind_Speed_850mb
47 54 52 50 49 49 53 57 56 54 54 56 58 59 57 55 44 35 33 37 36 39 38 33 31 33 32 34 35 43 41 40 41 40 33 33 30 28 27 11 22 30 31
47 47 48 52 56 56 57 57 56 58 57 58 59 59 54 45 39 36 36 33 33 31 25 28 27 30 34 33 33 37 35 28 33 22 28 20 22 25 22 24 26 30 35
50 51 55 57 56 64 64 63 65 63 60 58 58 52 49 45 44 36 37 33 30 34 33 31 22 24 36 41 34 31 27 28 30 28 20 16 16 26 28 31 40 47 49
54 56 57 61 65 63 70 73 70 64 61 59 54 45 45 36 32 27 25 29 31 27 29 34 31 29 39 30 28 26 26 28 26 29 29 32 38 24 37 31 40 54 56
59 60 57 57 59 62 72 72 71 65 62 57 44 39 32 28 18 19 31 32 28 26 29 28 29 34 29 26 25 25 27 28 26 29 31 31 32 40 36 57 63 49 47
49 52 48 48 53 58 66 68 68 62 57 42 39 32 25 19 11 11 11 23 25 29 27 25 25 27 28 23 22 24 27 30 32 33 35 35 30 34 39 50 57 63 66
37 41 39 36 41 50 54 53 50 40 27 26 27 23 19 16 14 12 11 16 22 26 27 25 24 25 26 24 24 25 27 29 33 36 40 47 55 53 49 50 60 60 57
35 36 36 36 35 38 47 45 35 25 21 21 24 23 18 19 19 21 18 18 22 25 25 23 22 23 23 24 26 29 32 36 41 48 55 61 61 53 47 49 56 68 67
42 45 43 45 45 44 45 41 32 28 29 31 30 25 16 13 15 16 18 20 20 20 21 21 21 22 24 28 31 35 40 45 53 59 62 62 62 57 55 50 50 58 68
51 50 49 48 50 49 49 43 37 35 39 34 29 21 13 6 7 11 15 18 20 20 19 21 23 27 31 35 39 44 50 54 56 59 60 62 60 57 53 47 49 52 63
56 59 60 58 61 60 60 61 58 53 43 33 25 26 20 17 6 7 9 12 17 20 23 26 30 33 37 41 45 49 53 56 59 61 62 64 62 54 43 43 46 52 55
61 72 77 78 71 70 66 59 49 40 34 30 24 15 29 15 14 14 15 17 19 24 28 32 36 39 42 47 52 54 57 61 65 65 64 56 45 45 45 47 52 59 65
73 79 71 59 61 60 58 52 46 38 28 15 9 16 14 19 14 15 18 22 25 28 32 36 41 46 51 55 58 59 61 63 64 63 59 53 46 47 48 51 57 64 62
63 59 57 58 59 57 55 49 44 36 32 24 24 14 14 15 19 24 29 33 37 41 45 49 52 56 58 59 58 58 59 60 56 52 51 52 55 54 54 55 58 60 65
45 45 49 52 53 50 47 44 37 27 18 12 4 8 17 23 29 35 40 44 47 49 50 51 52 53 54 52 55 58 57 55 55 54 55 57 59 63 64 64 62 59 61
42 36 48 52 45 40 35 33 29 18 6 1 9 17 26 32 37 40 43 44 44 44 44 45 49 52 51 49 48 47 50 50 50 51 51 56 60 62 59 59 59 60 67
39 36 44 47 41 36 28 22 13 7 8 12 16 21 27 32 34 36 36 37 36 35 38 49 53 47 39 34 34 36 41 44 48 52 52 57 54 55 57 58 66 71 72
42 44 44 42 35 32 24 20 15 11 13 18 22 24 26 29 31 31 31 30 30 32 42 49 39 34 28 26 30 35 39 44 46 49 50 55 51 53 62 70 76 79 81
41 44 42 39 34 30 26 21 20 19 18 20 27 30 31 28 26 26 26 27 27 28 33 36 36 35 31 28 32 36 40 44 44 44 47 52 60 62 56 60 74 81 86
49 46 41 37 30 29 23 17 21 24 29 30 30 29 26 25 26 27 28 30 31 28 26 29 34 31 32 31 29 32 39 44 46 49 55 56 59 64 64 70 77 84 87
46 39 35 32 30 26 26 30 28 28 28 25 24 23 25 27 27 26 28 29 29 28 26 25 23 25 25 26 28 30 38 46 55 56 58 60 62 62 64 54 54 60 65
42 35 35 37 34 30 24 24 25 25 21 21 24 26 27 27 24 25 26 27 28 27 25 24 20 17 21 22 23 26 33 37 48 51 51 53 56 60 57 40 42 46 49
42 37 36 35 33 29 26 25 29 27 26 22 22 24 27 26 26 28 27 26 29 33 39 33 30 25 23 22 23 27 37 39 39 41 43 63 65 41 42 43 44 49 52
38 33 32 32 30 27 27 33 33 30 23 20 20 24 28 26 25 26 29 32 34 41 41 34 34 30 29 33 35 40 44 38 39 55 62 66 61 55 45 34 41 50 50
34 31 31 30 30 28 29 31 32 31 26 20 18 20 26 28 27 29 29 32 34 40 37 35 36 39 42 43 35 33 45 43 52 63 69 71 69 68 51 37 42 50 53
32 32 30 28 28 26 26 28 31 31 29 21 17 18 23 23 23 26 27 27 27 29 26 28 27 28 34 34 24 23 28 42 55 67 74 81 79 75 65 58 50 50 53
Wind_Direction_850mb
221 225 223 222 220 218 213 210 213 217 221 223 222 224 225 226 225 227 248 245 245 243 230 229 233 244 242 248 255 271 269 269 276 290 286 292 283 284 293 280 259 289 283
225 218 217 220 220 216 214 214 213 218 222 224 223 223 224 228 238 267 259 250 248 235 226 229 224 225 238 244 270 268 254 256 273 288 305 306 297 285 286 288 286 292 294
221 221 222 217 217 217 212 210 213 217 223 226 226 227 231 238 245 251 265 254 238 245 230 214 228 238 255 270 256 244 245 259 266 280 268 277 286 303 290 287 292 296 296
226 227 218 214 217 211 211 213 215 218 224 227 226 234 247 246 248 262 245 253 243 239 222 215 228 252 260 254 240 242 249 252 262 266 266 268 271 290 297 292 301 297 292
221 221 218 218 213 213 213 215 217 220 225 229 226 233 238 241 236 242 256 242 245 232 218 219 225 234 243 240 246 257 252 261 257 261 271 274 274 276 271 286 292 289 292
215 216 214 208 208 211 213 217 219 223 227 227 223 222 219 223 232 238 241 222 223 221 225 232 240 243 246 255 254 255 251 254 260 265 268 271 272 274 278 281 284 290 296
191 193 191 185 193 205 207 207 210 214 212 205 204 193 197 211 226 246 234 227 228 233 230 231 241 244 244 244 244 250 258 266 271 275 277 280 281 281 281 283 285 286 285
138 148 154 162 169 180 190 190 190 188 181 183 178 174 201 220 243 247 244 239 232 230 233 231 229 233 236 246 259 265 269 274 278 281 282 284 285 284 281 281 289 291 288
111 122 138 148 157 162 169 174 167 157 148 145 153 173 185 211 219 226 229 228 225 222 222 225 228 236 249 259 265 270 274 278 281 283 284 286 286 286 286 283 282 284 288
107 120 127 136 138 139 136 136 138 135 119 106 90 73 56 81 143 190 200 202 209 215 220 234 248 260 268 273 277 280 282 282 283 286 288 289 289 287 286 282 280 278 280
112 121 126 130 127 126 124 121 115 106 92 79 74 48 35 14 339 235 229 217 225 237 249 259 266 270 274 277 279 281 283 285 286 288 290 290 290 288 283 283 283 282 282
110 116 118 119 118 120 119 116 116 108 99 92 88 18 332 287 242 247 250 256 263 267 270 272 275 279 284 286 288 289 291 292 292 292 291 290 287 283 285 286 284 284 285
112 113 110 106 109 114 118 118 113 110 106 109 36 234 228 238 255 264 274 276 276 278 284 287 289 291 292 293 295 295 293 293 291 291 289 287 284 283 283 285 286 284 282
114 109 107 108 111 112 113 113 112 112 110 109 131 196 240 275 291 295 297 299 299 298 297 297 297 296 295 296 297 296 295 294 292 290 287 286 287 283 286 289 287 285 285
108 109 110 112 114 117 118 117 113 108 101 106 136 272 293 298 299 298 299 299 299 299 300 301 301 300 300 300 297 295 294 294 294 294 298 293 293 296 296 292 285 282 283
106 109 114 116 115 113 108 104 97 93 122 349 301 302 305 305 304 303 302 302 304 307 308 307 307 307 305 299 294 292 297 300 298 298 304 306 305 302 304 298 293 287 283
116 115 110 113 111 104 94 92 86 58 1 337 325 320 317 310 308 311 313 315 316 319 321 320 314 310 310 305 302 301 301 302 306 308 309 306 304 304 299 298 296 289 284
120 118 117 114 107 101 98 88 78 51 24 3 343 329 322 322 324 326 327 325 325 329 334 329 329 327 324 318 309 306 311 310 309 307 306 303 309 307 310 306 301 298 293
122 119 116 111 106 97 83 71 63 46 24 11 2 351 345 341 339 337 333 326 325 329 334 334 332 327 333 328 317 316 313 312 314 314 317 318 315 316 313 307 306 302 297
123 118 113 108 101 89 80 67 51 35 25 18 11 4 7 1 358 353 346 344 337 330 331 332 330 332 338 338 331 324 322 327 331 335 334 332 326 318 313 305 303 301 304
116 112 109 105 97 89 69 54 45 39 32 28 31 23 16 8 6 3 2 359 357 345 334 338 343 343 344 346 345 339 338 334 335 337 336 331 328 321 315 312 312 312 309
115 114 110 98 86 77 65 54 44 39 41 47 40 27 16 12 8 7 8 10 10 10 12 359 2 5 357 1 360 355 346 343 342 345 345 341 335 333 330 332 328 325 320
117 108 97 92 83 71 59 50 47 44 45 44 36 24 12 14 13 11 11 7 4 6 7 15 16 18 17 9 8 357 356 354 355 357 359 2 352 354 12 14 25 29 23
106 100 96 86 79 68 57 49 43 42 47 49 33 25 13 17 15 7 4 1 1 4 14 19 22 24 23 13 6 3 359 3 15 20 19 17 13 23 29 38 29 33 29
107 101 92 83 74 64 55 44 39 39 42 46 36 27 20 20 21 14 14 4 4 3 6 16 16 14 13 9 2 348 356 10 26 25 23 16 11 23 30 38 27 26 35
103 93 84 75 66 59 51 44 37 38 39 43 37 29 22 23 28 26 18 12 11 5 6 4 11 12 3 2 6 355 2 23 31 31 29 23 24 26 26 30 28 24 25